This demonstration page uses our WeatherBlox Daily Observations layout. Learn more.

Left ArrowRight Arrow

34.74481, -87.66753

Hourly Observations for December 17, 2018

Temp ( °F °C ) Dew Point ( °F °C ) Humidity (%) Winds ( mph kmh ) Pressure ( in mb ) Visibility ( mi km ) Precip ( " mm )
12:53 am 00:53 Clear 46 7.8 44 6.7 93 93 Calm 30.22 1023 10 16 0.00 0.00
1:53 am 01:53 Clear 46 7.8 43 6.1 89 89 Calm 30.22 1023 10 16 0.00 0.00
2:18 am 02:18 Clear with Mist and Fog 43 6.1 42 5.6 97 97 Calm 30.21 1023 1 2 0.00 0.00
2:24 am 02:24 Clear with Fog 41 5 40 4.4 96 96 Calm 30.21 1023 0 0 0.00 0.00
2:53 am 02:53 Mostly Cloudy with Fog 40 4.4 39 3.9 97 97 Calm 30.21 1023 0 0 0.00 0.00
3:09 am 03:09 Mostly Cloudy with Fog 40 4.4 39 3.9 97 97 Calm 30.21 1023 0 0 0.00 0.00
3:53 am 03:53 Mostly Cloudy with Fog 40 4.4 39 3.9 97 97 Calm 30.21 1023 0 0 0.00 0.00
4:53 am 04:53 Mostly Cloudy with Fog 38 3.3 37 2.8 97 97 W 5 7 30.22 1023 0 0 0.00 0.00
5:53 am 05:53 Mostly Cloudy with Fog 40 4.4 39 3.9 97 97 Calm 30.23 1024 0 0 0.00 0.00
6:29 am 06:29 Mostly Cloudy with Fog 40 4.4 39 3.9 97 97 Calm 30.24 1024 0 0 0.00 0.00
6:53 am 06:53 Mostly Cloudy with Fog 41 5 40 4.4 96 96 WNW 5 7 30.24 1024 0 0 0.00 0.00
7:53 am 07:53 Mostly Cloudy with Fog 42 5.6 41 5 96 96 WNW 5 7 30.27 1025 5 8 0.00 0.00
8:53 am 08:53 Mostly Cloudy with Fog 43 6.1 42 5.6 97 97 WNW 3 6 30.28 1025 0 0 0.00 0.00
9:32 am 09:32 Cloudy with Fog 44 6.7 43 6.1 96 96 Calm 30.30 1026 1 1 0.00 0.00
9:53 am 09:53 Cloudy with Mist and Fog 44 6.7 43 6.1 96 96 Calm 30.28 1026 3 4 0.00 0.00
10:12 am 10:12 Cloudy with Mist and Fog 45 7.2 44 6.7 97 97 VRB 3 6 30.27 1025 4 6 0.00 0.00
10:53 am 10:53 Cloudy with Mist and Fog 46 7.8 44 6.7 93 93 SW 3 6 30.27 1025 6 10 0.00 0.00
11:07 am 11:07 Mostly Cloudy with Mist and Fog 46 7.8 44 6.7 93 93 Calm 30.27 1025 6 10 0.00 0.00
11:29 am 11:29 Mostly Sunny 48 8.9 44 6.7 86 86 WSW 3 6 30.24 1024 9 14 0.00 0.00
11:53 am 11:53 Sunny 50 10 45 7.2 83 83 Calm 30.24 1024 9 14 0.00 0.00
12:53 pm 12:53 Sunny 56 13.3 44 6.7 65 65 NW 3 6 30.21 1023 10 16 0.00 0.00
1:53 pm 13:53 Sunny 59 15 42 5.6 54 54 NW 7 11 30.19 1022 10 16 0.00 0.00
2:53 pm 14:53 Sunny 59 15 41 5 51 51 W 5 7 30.18 1022 10 16 0.00 0.00
5:53 pm 17:53 Clear 50 10 37 2.8 61 61 WNW 6 9 30.19 1022 10 16 0.00 0.00
6:53 pm 18:53 Clear 48 8.9 37 2.8 66 66 NW 6 9 30.21 1023 10 16 0.00 0.00
7:53 pm 19:53 Clear 48 8.9 37 2.8 66 66 Calm 30.20 1023 10 16 0.00 0.00
8:53 pm 20:53 Clear 43 6.1 37 2.8 80 80 Calm 30.20 1023 10 16 0.00 0.00
9:53 pm 21:53 Clear 39 3.9 35 1.7 86 86 Calm 30.20 1023 10 16 0.00 0.00
10:53 pm 22:53 Clear 40 4.4 35 1.7 83 83 WNW 3 6 30.22 1023 10 16 0.00 0.00
11:53 pm 23:53 Clear 39 3.9 36 2.2 89 89 Calm 30.21 1023 10 16 0.00 0.00

Powered by AerisWeather